Location: Bh?mavarapp?du
(16.7041°N, 80.6518°E)
Time: 01:51:22
(UTC+00:00)

Meteor 2-10 - Pass Details

Date: 21 April 2021
Orbit: 739 x 868 km, 81.2° (Epoch: 07 May)

Event Time Altitude Azimuth Distance (km) Brightness Sun altitude
Rises 23:03:53 0° 349° (N) 3,395 7.5 -17.8°
Reaches altitude 10° 23:06:21 10° 346° (NNW) 2,443 6.7 -17.2°
Maximum altitude 23:11:49 64° 266° (W) 897 4.1 -16.0°
Drops below altitude 10° 23:17:05 10° 185° (S) 2,355 6.3 -14.8°
Sets 23:19:26 0° 182° (S) 3,262 7.1 -14.3°
